#timestamp,LO_Frequency,Hit,StdDev 
1652547615.0,286046994.2,N
1652547615.9,286046994.2,N
1652547635.8,286046997.5,N
1652547655.6,286046998.6,N
1652547675.4,286046999.1,N
1652547695.3,286047001.0,N
1652547715.1,286047002.1,N
1652547716.0,286047002.1,N
1652547735.8,286047004.0,N
1652547755.7,286047003.4,N
1652547775.5,286047005.8,N
1652547795.3,286047004.7,N
1652547815.2,286047007.0,N
1652547835.9,286047006.4,N
1652547855.7,286047010.5,N
1652547875.6,286047011.8,N
1652547895.4,286047013.0,N
1652547915.2,286047016.7,N
1652547935.1,286047021.1,N
1652547936.0,286047021.1,N
1652547955.8,286047025.2,N
1652547975.6,286047023.7,N
1652547995.5,286047028.1,N
1652548015.3,286047030.4,N
1652548035.1,286047033.6,N
1652548055.9,286047037.2,Y
1652548075.7,286047034.0,P
1652548095.5,286047039.0,N
1652548115.4,286047041.8,P
1652548135.2,286047047.1,Y
1652548155.0,286047019.7,P
1652548155.9,286047019.7,P
1652548175.8,286047025.0,P
1652548195.6,286047024.9,Y
1652548215.4,286047002.6,P
1652548235.3,286047003.3,N
1652548255.1,286047006.0,N
1652548275.8,286047007.9,N
1652548295.7,286047012.2,N
1652548315.5,286047013.1,N
1652548335.3,286047014.2,N
1652548355.2,286047017.8,N
1652548375.9,286047019.1,N
1652548395.7,286047026.7,Y
1652548415.6,286047016.0,P
1652548435.4,286047021.8,P
1652548455.2,286047024.4,P
1652548475.1,286047029.5,Y
1652548476.0,286047029.5,P
1652548495.8,286047010.9,N
1652548515.6,286047011.4,N
1652548535.5,286047013.1,N
1652548555.3,286047016.0,N
1652548575.1,286047017.7,N
1652548595.9,286047019.4,Y
1652548615.7,286047001.5,P
1652548635.5,286047005.4,N
1652548655.4,286047007.1,N
1652548675.2,286047007.7,N
1652548695.0,286047012.4,N
1652548695.9,286047012.4,N
1652548715.8,286047011.8,N
1652548735.6,286047013.0,N
1652548755.5,286047015.2,Y
1652548775.3,286047006.8,P
1652548795.1,286047010.7,P
1652548815.9,286047011.2,P
1652548835.7,286047013.5,Y
1652548855.5,286047003.4,P
1652548875.4,286047005.1,N
1652548895.2,286047007.1,N
1652548915.0,286047006.3,N
1652548915.9,286047006.3,Y
1652548935.8,286047003.3,P
1652548955.6,286047007.5,P
1652548975.4,286047009.0,P
1652548995.3,286047007.7,Y
1652549015.1,286047005.4,P
1652549035.8,286047002.9,P
1652549055.7,286047002.9,N
1652549075.5,286047004.6,N
1652549095.3,286047006.9,Y
1652549115.2,286047005.9,P
1652549135.0,286047003.9,P
1652549135.9,286047003.9,P
1652549155.7,286047005.5,Y
1652549175.6,286047002.1,P
1652549195.4,286047001.3,N
1652549215.2,286047002.3,N
1652549235.1,286046999.9,N
1652549236.0,286046999.9,N
1652549255.8,286047002.6,N
1652549275.6,286047002.0,N
1652549295.5,286047003.7,N
1652549315.3,286047005.3,Y
1652549335.2,286047003.9,P
1652549355.9,286047003.9,P
1652549375.7,286047005.4,P
1652549395.6,286047004.5,Y
1652549415.4,286047002.0,P
1652549435.2,286047003.9,P
1652549455.1,286047004.3,P
1652549456.0,286047004.3,Y
1652549475.8,286046998.9,P
1652549495.6,286046995.7,N
1652549515.5,286046994.9,N
1652549535.3,286046999.5,N
1652549555.1,286046998.3,N
1652549575.9,286047000.9,N
1652549595.7,286047001.4,N
1652549615.5,286047004.7,N
1652549635.4,286047005.8,N
1652549655.2,286047007.2,N
1652549675.0,286047005.3,N
1652549675.9,286047005.3,N
1652549695.8,286047004.7,N
1652549715.6,286047004.5,N
1652549735.4,286047004.6,N
1652549755.3,286047010.4,N
1652549775.1,286047009.8,N
1652549795.8,286047011.5,N
1652549815.7,286047013.7,Y
1652549835.5,286047010.8,P
1652549855.3,286047009.7,N
1652549875.2,286047012.5,P
1652549895.0,286047013.9,Y
1652549895.9,286047013.9,P
1652549915.7,286047003.7,N
1652549935.6,286047005.0,N
1652549955.4,286047004.7,N
1652549975.2,286047006.0,N
1652549995.1,286047002.9,N
1652549996.0,286047002.9,N
1652550015.8,286047005.1,N
1652550035.6,286047004.9,N
1652550055.5,286047007.2,N
1652550075.3,286047007.7,N
1652550095.2,286047011.9,Y
1652550115.9,286047006.5,P
1652550135.7,286047010.6,P
1652550155.6,286047009.9,P
1652550175.4,286047008.2,Y
1652550195.2,286046998.1,P
1652550215.1,286047000.3,N
1652550216.0,286047000.3,N
1652550235.8,286047001.9,N
1652550255.6,286047001.9,N
1652550275.5,286047004.0,N
1652550295.3,286047006.0,N
1652550315.1,286047003.7,N
1652550335.9,286047005.3,N
1652550355.7,286047005.2,N
1652550375.5,286047006.3,N
1652550395.4,286047008.7,Y
1652550415.2,286047001.5,P
1652550435.0,286047004.2,P
1652550435.9,286047004.2,P
1652550455.8,286047007.1,Y
1652550475.6,286047002.4,P
1652550495.4,286047004.4,P
1652550515.3,286047005.5,P
1652550535.1,286047005.7,Y
1652550555.8,286047000.6,P
1652550575.7,286047001.5,N
1652550595.5,286047005.6,P
1652550615.4,286047007.0,Y
1652550635.2,286047005.4,P
1652550655.0,286047004.9,P
1652550655.9,286047004.9,P
1652550675.8,286047006.8,Y
1652550695.6,286047003.6,P
1652550715.4,286047003.6,P
1652550735.3,286047003.2,P
1652550755.1,286047001.7,Y
1652550756.0,286047001.7,P
1652550775.8,286046993.8,P
1652550795.7,286046993.7,N
1652550815.5,286046994.9,N
1652550835.3,286047000.8,N
1652550855.2,286046999.9,N
1652550875.0,286047002.6,N
1652550875.9,286047002.6,N
1652550895.7,286047001.5,N
1652550915.6,286047009.2,N
1652550935.4,286047005.4,N
1652550955.2,286047005.8,N
1652550975.1,286047005.4,N
1652550976.0,286047005.4,N
1652550995.8,286047003.8,N
1652551015.6,286047005.4,N
1652551035.5,286047008.6,N
1652551055.3,286047009.6,N
1652551075.1,286047007.8,N
1652551095.9,286047010.4,N
1652551115.7,286047010.6,N
1652551135.5,286047008.5,N
1652551155.4,286047007.6,N
1652551175.2,286047006.7,N
1652551195.0,286047012.2,N
1652551195.9,286047012.2,N
